Regional Weather Roundup
Issued by NWS Albany, NY

Home | Current Version | Previous Version | Text Only | Print | Product List | Glossary On
Versions: 1 2 3 4 5 6 7 8 9 10 11 12 13 14 15 16 17 18 19 20 21 22 23 24 25 26 27 28 29 30 31 32 33 34 35 36 37 38 39 40 41 42 43 44 45 46 47 48 49 50
000
ASUS41 KALY 032010
RWRALY

NEW YORK STATE HOURLY WEATHER ROUNDUP
NATIONAL WEATHER SERVICE ALBANY NY
400 PM EDT MON AUG 03 2015

NOTE: "FAIR" INDICATES FEW OR NO CLOUDS BELOW 12,000 FEET WITH NO
SIGNIFICANT WEATHER AND/OR NO OBSTRUCTIONS TO VISIBILITY.

NYZ032-033-038>043-046>054-057>066-NYZ062>081-032100-
EAST


CITY           SKY/WX    TMP DP  RH WIND       PRES   REMARKS
ALBANY         CLOUDY    76  67  73 E12       29.74R
GLENS FALLS    CLOUDY    83  61  47 SW8       29.71S
POUGHKEEPSIE   PTSUNNY   90  58  33 S10G17    29.73F
NEWBURGH       MOSUNNY   88  59  37 SW16G22   29.77F
MONTGOMERY     PTSUNNY   89  61  38 SW15G26   29.75F
WHITE PLAINS   MOSUNNY   85  61  44 S10G21    29.78F
ISLIP          MOSUNNY   84  69  60 S18G28    29.79F
NEW YORK CITY  MOSUNNY   91  59  33 S12G22    29.77F HX  90
CENTRAL PARK   MOSUNNY   87  61  41 S8        29.81S
$$

NYZ005>009-017-018-044>046-055-056-032100-
CENTRAL


CITY           SKY/WX    TMP DP  RH WIND       PRES   REMARKS
FULTON         PTSUNNY   75  66  73 NW5       29.76F
SYRACUSE       CLOUDY    80  60  50 SW16      29.74F
ROME           PTSUNNY   80  60  50 W10       29.77S
ELMIRA         PTSUNNY   80  60  50 W10       29.77S
BINGHAMTON     MOSUNNY   77  60  55 W9        29.81S
MONTICELLO     CLOUDY    68  63  83 S10G26    29.83R THUNDER
$$

NYZ026>034-041>043-032100-
NORTH


CITY           SKY/WX    TMP DP  RH WIND       PRES   REMARKS
WATERTOWN      MOSUNNY   74  65  73 SW16G23   29.73F
FORT DRUM      NOT AVBL
MASSENA        PTSUNNY   77  62  59 SW20G26   29.69F
SARANAC LAKE   PTSUNNY   74  58  57 SW9G20    29.75F
PLATTSBURGH    CLOUDY    80  61  52 W9        29.68S
$$

NYZ001>004-010>016-019>021-032100-
WEST


CITY           SKY/WX    TMP DP  RH WIND       PRES   REMARKS
NIAGARA FALLS  PTSUNNY   76  61  59 S13       29.75S
BUFFALO        MOSUNNY   77  62  59 SW16G25   29.77S
DUNKIRK        MOSUNNY   75  61  61 W12G21    29.81S
JAMESTOWN      MOSUNNY   72  61  68 W14G20    29.85S
WELLSVILLE     MOSUNNY   77  55  46 SW12G21   29.85F
ROCHESTER      PTSUNNY   81  59  47 W15       29.75S
PENN YAN       CLOUDY    77  59  53 NW17G31   29.79R
$$

             KEY
       WCI = WIND CHILL INDEX
       VSB = VISIBILITY
       HX  = HEAT INDEX
$$



USA.gov is the U.S. government's official web portal to all federal, state and local government web resources and services.